Weather History for Meeker, CO

Change the Weather History Date:

Tuesday, November 20, 2012

  Actual Average Record
Temperature  
Mean Temperature 40 °F 30 °F  
Max Temperature 56 °F 43 °F 57 °F (2006)
Min Temperature 23 °F 17 °F 0 °F (2000)
Degree Days  
Heating Degree Days 25 35  
Month to date heating degree days 533 617  
Since 1 July heating degree days 1370 1561  
Cooling Degree Days 0 0  
Month to date cooling degree days 0 0  
Year to date cooling degree days 325 172  
Moisture  
Dew Point 23 °F    
Average Humidity 55    
Maximum Humidity 88    
Minimum Humidity 22    
Precipitation  
Precipitation 0.00 in 0.05 in 0.22 in (2004)
Month to date precipitation 0.52 1.06  
Year to date precipitation 7.81 14.54  
Sea Level Pressure  
Sea Level Pressure 30.28 in    
Wind  
Wind Speed 3 mph (ESE)    
Max Wind Speed 15 mph    
Max Gust Speed 20 mph    
Visibility 9 miles    
Events      
T = Trace of Precipitation, MM = Missing Value Source: NWS Daily Summary

Daily Weather History Graph

Daily Weather History Graph

Search for Another Location

Airport:

Trip Planner

Search our weather history database for the weather conditions in past years. The results will help you decide how hot, cold, wet, or windy it might be!

Date:

Astronomy

Nov. 20, 2012 Rise Set
Actual Time 7:03 AM MST 4:51 PM MST
Civil Twilight 6:33 AM MST 5:20 PM MST
Nautical Twilight 6:00 AM MST 5:53 PM MST
Astronomical Twilight 5:28 AM MST 6:25 PM MST
Moon 12:38 PM MST (11/20) No Moon Set
Length of Visible Light 10h 46m
Length of Day
9h 48m
First Quarter, 52% of the Moon is Illuminated
Nov 20
First Quarter
Nov 28
Full
Dec 6
Last Quarter
Dec 13
New
Dec 19
First Quarter

Hourly Weather History & Observations

Time (MST) Temp. Windchill Dew Point Humidity Pressure Visibility Wind Dir Wind Speed Gust Speed Precip Events Conditions
1:53 AM 27.0 °F 23.0 °F 23.0 °F 85% 30.32 in 10.0 mi NE 3.5 mph - N/A   Clear
2:53 AM 28.9 °F - 24.1 °F 82% 30.32 in 10.0 mi Calm Calm - N/A   Clear
3:53 AM 28.0 °F - 23.0 °F 81% 30.32 in 10.0 mi Calm Calm - N/A   Clear
4:53 AM 28.0 °F - 23.0 °F 81% 30.34 in 10.0 mi Calm Calm - N/A   Clear
5:53 AM 28.0 °F 24.2 °F 23.0 °F 81% 30.38 in 10.0 mi East 3.5 mph - N/A   Clear
6:53 AM 25.0 °F - 21.0 °F 85% 30.41 in 1.8 mi Calm Calm - N/A   Partly Cloudy
7:00 AM 26.6 °F - 21.2 °F 80% 30.36 in 3.0 mi Calm Calm - N/A   Partly Cloudy
7:53 AM 28.9 °F 25.2 °F 24.1 °F 82% 30.41 in 10.0 mi NE 3.5 mph - N/A   Clear
8:53 AM 34.0 °F - 26.1 °F 73% 30.38 in 10.0 mi Calm Calm - N/A   Clear
9:53 AM 41.0 °F - 27.0 °F 57% 30.34 in 10.0 mi Calm Calm - N/A   Clear
10:53 AM 48.0 °F - 28.0 °F 46% 30.30 in 10.0 mi Calm Calm - N/A   Clear
11:53 AM 53.1 °F - 26.1 °F 35% 30.25 in 10.0 mi SSW 9.2 mph - N/A   Clear
12:53 PM 54.0 °F - 24.1 °F 31% 30.20 in 10.0 mi SSE 9.2 mph - N/A   Clear
1:53 PM 55.9 °F - 21.0 °F 26% 30.18 in 10.0 mi SSW 11.5 mph 18.4 mph N/A   Clear
2:53 PM 55.0 °F - 18.0 °F 23% 30.17 in 10.0 mi SSW 9.2 mph - N/A   Clear
3:53 PM 54.0 °F - 19.0 °F 25% 30.17 in 10.0 mi SSW 6.9 mph - N/A   Clear
4:53 PM 46.9 °F - 23.0 °F 39% 30.19 in 10.0 mi Calm Calm - N/A   Clear
5:53 PM 37.0 °F - 23.0 °F 57% 30.25 in 10.0 mi Calm Calm - N/A   Clear
6:53 PM 35.1 °F 32.2 °F 23.0 °F 61% 30.28 in 10.0 mi East 3.5 mph - N/A   Clear
7:53 PM 30.9 °F 27.5 °F 21.9 °F 69% 30.30 in 10.0 mi ENE 3.5 mph - N/A   Clear
8:53 PM 30.9 °F 27.5 °F 21.9 °F 69% 30.26 in 10.0 mi ENE 3.5 mph - N/A   Clear
9:53 PM 30.0 °F - 21.9 °F 72% 30.22 in 10.0 mi Calm Calm - N/A   Clear
10:53 PM 27.0 °F 23.0 °F 21.0 °F 78% 30.19 in 10.0 mi NNE 3.5 mph - N/A   Clear
11:53 PM 28.0 °F - 21.0 °F 75% 30.15 in 10.0 mi Calm Calm - N/A   Clear